CW9352 Weather Reports


Display with metric or nautical units.
time (UTC)temp
F
wind
direction
speed
MPH
gust
MPH
rain 1hr
in
rain 24hr
in
rain mn
in
humidity
%
barometer
mb
20260504224032 75 197 2.0 5.0 0.00 0.00 0.00 57 1015.6
20260504223018 75 179 1.0 3.0 0.00 0.00 0.00 56 1015.6
20260504222018 75 187 2.0 5.0 0.00 0.00 0.00 56 1015.6
20260504221018 75 168 2.0 4.0 0.00 0.00 0.00 55 1015.8
20260504220018 75 167 2.0 5.0 0.00 0.00 0.00 55 1015.5
20260504215018 76 174 2.0 6.0 0.00 0.00 0.00 54 1015.7
20260504214018 76 188 2.0 7.0 0.00 0.00 0.00 54 1015.7
20260504213019 76 160 2.0 6.0 0.00 0.00 0.00 53 1015.7
20260504212019 76 159 2.0 4.0 0.00 0.00 0.00 52 1015.8
20260504211019 76 167 3.0 6.0 0.00 0.00 0.00 52 1015.9
20260504210019 76 155 2.0 4.0 0.00 0.00 0.00 52 1015.9
20260504205039 76 180 3.0 6.0 0.00 0.00 0.00 52 1015.8
20260504204019 75 152 2.0 5.0 0.00 0.00 0.00 53 1016.0
20260504203100 74 151 2.0 3.0 0.00 0.00 0.00 54 1016.0
20260504202020 75 162 3.0 6.0 0.00 0.00 0.00 53 1016.1
20260504201020 75 104 2.0 5.0 0.00 0.00 0.00 53 1016.1
20260504200020 75 163 2.0 8.0 0.00 0.00 0.00 52 1016.3
20260504195017 75 121 2.0 7.0 0.00 0.00 0.00 52 1016.4
20260504194037 75 137 2.0 7.0 0.00 0.00 0.00 52 1016.6
20260504193020 76 189 2.0 8.0 0.00 0.00 0.00 52 1016.7
20260504192020 76 216 2.0 5.0 0.00 0.00 0.00 52 1016.8
20260504191018 76 197 2.0 7.0 0.00 0.00 0.00 51 1016.9
20260504190018 76 120 2.0 6.0 0.00 0.00 0.00 50 1017.1
20260504185037 76 199 2.0 5.0 0.00 0.00 0.00 52 1017.1
20260504184023 75 128 1.0 4.0 0.00 0.00 0.00 50 1017.2
20260504183041 75 213 2.0 4.0 0.00 0.00 0.00 52 1017.4
20260504182022 75 88 2.0 4.0 0.00 0.00 0.00 50 1017.3
20260504181021 75 212 2.0 5.0 0.00 0.00 0.00 52 1017.5
20260504180022 75 158 1.0 3.0 0.00 0.00 0.00 52 1017.5
20260504175022 75 186 2.0 6.0 0.00 0.00 0.00 53 1017.5
20260504174019 74 96 1.0 4.0 0.00 0.00 0.00 52 1017.6
20260504173019 75 128 2.0 6.0 0.00 0.00 0.00 48 1017.8
20260504172019 74 186 2.0 6.0 0.00 0.00 0.00 52 1017.8
20260504171019 75 151 3.0 7.0 0.00 0.00 0.00 50 1017.9
20260504151018 74 153 2.0 7.0 0.00 0.00 0.00 58 1018.7
20260504141019 73 67 2.0 3.0 0.00 0.00 0.00 52 1018.6
20260504100109 50 300 1.0 1.0 0.00 0.00 0.00 96 1017.8
20260504081051 50 317 1.0 2.0 0.00 0.00 0.00 94 1018.0
20260504050019 58 327 1.0 2.0 0.00 0.00 0.00 83 1019.0
20260504045019 59 329 1.0 2.0 0.00 0.00 0.00 82 1019.0
20260504044020 58 330 2.0 3.0 0.00 0.00 0.00 83 1019.0
20260504043023 58 315 1.0 2.0 0.00 0.00 0.00 83 1019.0
20260504042023 58 303 1.0 2.0 0.00 0.00 0.00 83 1019.0
20260504041025 59 310 1.0 2.0 0.00 0.00 0.00 82 1018.9
20260504040023 59 329 2.0 2.0 0.00 0.00 0.00 82 1018.9
20260504035023 60 331 2.0 2.0 0.00 0.00 0.00 81 1018.9
20260504034023 60 324 2.0 3.0 0.00 0.00 0.00 79 1018.9
20260504033024 60 337 2.0 2.0 0.00 0.00 0.00 79 1018.9
20260504032024 60 306 1.0 2.0 0.00 0.00 0.00 79 1018.9
20260504031023 60 322 1.0 2.0 0.00 0.00 0.00 79 1019.0
20260504025021 60 304 1.0 1.0 0.00 0.00 0.00 80 1019.0
20260504024022 60 314 1.0 2.0 0.00 0.00 0.00 80 1018.9
20260504023022 61 316 1.0 2.0 0.00 0.00 0.00 81 1018.8
20260504022022 61 296 1.0 2.0 0.00 0.00 0.00 79 1018.7
20260504021022 62 305 1.0 1.0 0.00 0.00 0.00 77 1018.5
20260504020022 63 306 1.0 2.0 0.00 0.00 0.00 76 1018.5
20260504015022 65 296 1.0 1.0 0.00 0.00 0.00 74 1018.2
20260504014022 67 307 1.0 1.0 0.00 0.00 0.00 71 1018.1
20260504013023 68 312 1.0 2.0 0.00 0.00 0.00 67 1018.1
20260504012022 69 277 1.0 2.0 0.00 0.00 0.00 65 1017.9
20260504011023 69 228 1.0 3.0 0.00 0.00 0.00 66 1017.8
20260504010023 69 238 2.0 4.0 0.00 0.00 0.00 67 1017.8
20260504005023 69 239 2.0 4.0 0.00 0.00 0.00 69 1017.8
20260504004021 69 226 2.0 6.0 0.00 0.00 0.00 66 1017.7
20260504003023 69 221 2.0 4.0 0.00 0.00 0.00 66 1017.7
20260504002024 70 222 2.0 5.0 0.00 0.00 0.00 65 1017.6
20260504001024 70 219 2.0 4.0 0.00 0.00 0.00 64 1017.5
20260504000024 70 241 2.0 4.0 0.00 0.00 0.00 63 1017.6
20260503235024 71 228 2.0 4.0 0.00 0.00 0.00 63 1017.6
20260503234024 71 225 2.0 5.0 0.00 0.00 0.00 62 1017.6
20260503233021 71 219 3.0 7.0 0.00 0.00 0.00 60 1017.5
20260503232045 72 224 2.0 4.0 0.00 0.00 0.00 59 1017.6
20260503231044 72 225 1.0 3.0 0.00 0.00 0.00 59 1017.6
20260503230022 73 212 3.0 6.0 0.00 0.00 0.00 58 1017.6
20260503225022 73 231 2.0 5.0 0.00 0.00 0.00 56 1017.7